DLH01Y EDDF-LFKB

Flight info

Callsign DLH01Y
Flight time 1h 16m
Altitude 37000
Route ANEKI2L/18 ANEKI Y163 NATOR DCT TRA DCT RIPUS DCT GERSA DCT SOSON DCT ODINA DCT EVANO DCT KEMMI DCT OLETI/N0343F190 M858 LIGUR
Aircraft A319/M-SDE2E3FGIJ1LORWXYZ/HB1

Departure

Time 2026-04-15 11:59
Airport Frankfurt Main Airport (EDDF)

Arrival

Time 2026-04-15 13:15
Airport Bastia-Poretta International airport (LFKB)
Time Latitude Longitude Altitude Speed Heading
2026-04-15 11:36 50.04564 8.56306 353 ft 0 kts 39°
2026-04-15 11:47 50.04560 8.56301 353 ft 2 kts 39°
2026-04-15 11:47 50.04548 8.56286 353 ft 2 kts 39°
2026-04-15 11:48 50.04535 8.56276 353 ft 2 kts
2026-04-15 11:48 50.04520 8.56280 353 ft 2 kts 331°
2026-04-15 11:48 50.04509 8.56296 353 ft 2 kts 299°
2026-04-15 11:48 50.04505 8.56319 353 ft 2 kts 266°
2026-04-15 11:49 50.04509 8.56341 353 ft 2 kts 244°
2026-04-15 11:49 50.04515 8.56362 353 ft 2 kts 251°
2026-04-15 11:49 50.04519 8.56380 353 ft 0 kts 249°
2026-04-15 11:51 50.04518 8.56378 353 ft 0 kts 249°
2026-04-15 11:52 50.04513 8.56354 353 ft 3 kts 250°
2026-04-15 11:52 50.04498 8.56295 353 ft 8 kts 250°
2026-04-15 11:52 50.04475 8.56193 353 ft 11 kts 249°
2026-04-15 11:52 50.04446 8.56078 353 ft 11 kts 246°
2026-04-15 11:53 50.04379 8.56037 353 ft 12 kts 160°
2026-04-15 11:53 50.04301 8.56105 353 ft 13 kts 123°
2026-04-15 11:53 50.04265 8.56231 353 ft 13 kts 160°
2026-04-15 11:53 50.04178 8.56279 353 ft 12 kts 162°
2026-04-15 11:54 50.04115 8.56212 353 ft 13 kts 250°
2026-04-15 11:54 50.04079 8.56064 353 ft 15 kts 250°
2026-04-15 11:54 50.04037 8.55890 353 ft 18 kts 250°
2026-04-15 11:54 50.03991 8.55695 353 ft 20 kts 250°
2026-04-15 11:55 50.03937 8.55472 353 ft 22 kts 250°
2026-04-15 11:55 50.03879 8.55229 353 ft 24 kts 250°
2026-04-15 11:55 50.03817 8.54970 353 ft 26 kts 250°
2026-04-15 11:55 50.03752 8.54698 353 ft 27 kts 250°
2026-04-15 11:56 50.03692 8.54450 353 ft 24 kts 250°
2026-04-15 11:56 50.03635 8.54211 353 ft 23 kts 249°
2026-04-15 11:56 50.03577 8.53974 353 ft 23 kts 250°
2026-04-15 11:56 50.03520 8.53736 353 ft 23 kts 250°
2026-04-15 11:57 50.03465 8.53504 352 ft 22 kts 250°
2026-04-15 11:57 50.03354 8.53042 352 ft 22 kts 250°
2026-04-15 11:57 50.03301 8.52815 352 ft 19 kts 250°
2026-04-15 11:58 50.03253 8.52659 352 ft 15 kts 226°
2026-04-15 11:58 50.03151 8.52603 352 ft 15 kts 179°
2026-04-15 11:58 50.02860 8.52607 352 ft 80 kts 179°
2026-04-15 11:58 50.02057 8.52616 353 ft 147 kts 181°
2026-04-15 11:59 50.00923 8.52576 752 ft 168 kts 183°
2026-04-15 11:59 49.99775 8.52510 1485 ft 168 kts 180°
2026-04-15 11:59 49.98605 8.52558 2239 ft 170 kts 177°
2026-04-15 11:59 49.97393 8.52670 2859 ft 183 kts 175°
2026-04-15 12:00 49.96077 8.52809 3429 ft 200 kts 175°
2026-04-15 12:00 49.94594 8.52955 3858 ft 223 kts 176°
2026-04-15 12:00 49.92998 8.53093 4384 ft 236 kts 176°
2026-04-15 12:00 49.91394 8.53220 5438 ft 234 kts 177°
2026-04-15 12:01 49.89790 8.53340 6474 ft 233 kts 178°
2026-04-15 12:01 49.88174 8.53453 7405 ft 235 kts 178°
2026-04-15 12:01 49.86548 8.53565 8243 ft 241 kts 178°
2026-04-15 12:01 49.84864 8.53681 9087 ft 246 kts 178°
2026-04-15 12:02 49.83155 8.53800 9919 ft 251 kts 178°
2026-04-15 12:02 49.81395 8.53924 10759 ft 255 kts 179°
2026-04-15 12:02 49.79637 8.54046 11595 ft 259 kts 179°
2026-04-15 12:02 49.77824 8.54069 12431 ft 262 kts 184°
2026-04-15 12:03 49.75981 8.53872 13048 ft 273 kts 187°
2026-04-15 12:03 49.74004 8.53608 13511 ft 291 kts 187°
2026-04-15 12:03 49.71931 8.53328 13929 ft 309 kts 187°
2026-04-15 12:03 49.69719 8.53029 14406 ft 324 kts 187°
2026-04-15 12:04 49.67454 8.52731 15130 ft 330 kts 187°
2026-04-15 12:04 49.65155 8.52429 15896 ft 333 kts 187°
2026-04-15 12:04 49.62841 8.52125 16632 ft 337 kts 186°
2026-04-15 12:04 49.60451 8.51809 17344 ft 341 kts 186°
2026-04-15 12:05 49.58057 8.51496 18028 ft 345 kts 187°
2026-04-15 12:05 49.55650 8.51180 18720 ft 348 kts 186°
2026-04-15 12:05 49.53210 8.50859 19377 ft 353 kts 186°
2026-04-15 12:05 49.50757 8.50537 20017 ft 357 kts 187°
2026-04-15 12:06 49.48250 8.50209 20648 ft 361 kts 186°
2026-04-15 12:06 49.45725 8.49877 21257 ft 365 kts 186°
2026-04-15 12:06 49.43151 8.49540 21849 ft 369 kts 186°
2026-04-15 12:06 49.40532 8.49197 22421 ft 374 kts 186°
2026-04-15 12:07 49.37895 8.48852 22989 ft 379 kts 186°
2026-04-15 12:07 49.35257 8.48508 23557 ft 382 kts 186°
2026-04-15 12:07 49.32602 8.48164 24111 ft 386 kts 186°
2026-04-15 12:07 49.29919 8.47817 24659 ft 390 kts 186°
2026-04-15 12:08 49.27196 8.47463 25186 ft 393 kts 187°
2026-04-15 12:08 49.24452 8.47107 25674 ft 398 kts 187°
2026-04-15 12:08 49.21687 8.46746 26161 ft 402 kts 187°
2026-04-15 12:08 49.18917 8.46386 26640 ft 405 kts 187°
2026-04-15 12:09 49.16081 8.46017 27102 ft 409 kts 187°
2026-04-15 12:09 49.13223 8.45645 27525 ft 414 kts 187°
2026-04-15 12:09 49.10336 8.45272 27946 ft 418 kts 187°
2026-04-15 12:09 49.07473 8.44831 28359 ft 421 kts 190°
2026-04-15 12:10 49.04580 8.44124 28785 ft 423 kts 194°
2026-04-15 12:10 49.01695 8.43161 29196 ft 426 kts 196°
2026-04-15 12:10 48.98799 8.42144 29588 ft 429 kts 196°
2026-04-15 12:10 48.95864 8.41115 29989 ft 432 kts 196°
2026-04-15 12:11 48.92932 8.40091 30389 ft 435 kts 196°
2026-04-15 12:11 48.89983 8.39060 30748 ft 438 kts 196°
2026-04-15 12:11 48.86973 8.38013 31078 ft 442 kts 196°
2026-04-15 12:11 48.83953 8.36966 31418 ft 445 kts 196°
2026-04-15 12:12 48.80932 8.35921 31740 ft 448 kts 196°
2026-04-15 12:12 48.77858 8.34853 32042 ft 451 kts 195°
2026-04-15 12:12 48.74804 8.33747 32441 ft 452 kts 196°
2026-04-15 12:12 48.71769 8.32633 32882 ft 451 kts 196°
2026-04-15 12:13 48.68718 8.31510 33313 ft 451 kts 196°
2026-04-15 12:13 48.65665 8.30393 33728 ft 450 kts 196°
2026-04-15 12:13 48.62650 8.29293 34108 ft 450 kts 196°
2026-04-15 12:13 48.59600 8.28182 34526 ft 450 kts 196°
2026-04-15 12:14 48.56540 8.27083 34941 ft 450 kts 195°
2026-04-15 12:14 48.53473 8.26226 35345 ft 451 kts 190°
2026-04-15 12:14 48.50376 8.25705 35709 ft 452 kts 186°
2026-04-15 12:14 48.47229 8.25534 36002 ft 454 kts 181°
2026-04-15 12:15 48.44072 8.25724 36258 ft 457 kts 176°
2026-04-15 12:15 48.40895 8.26281 36506 ft 459 kts 171°
2026-04-15 12:15 48.37760 8.27051 36785 ft 459 kts 171°
2026-04-15 12:15 48.34598 8.27848 37048 ft 460 kts 170°
2026-04-15 12:16 48.31451 8.28632 37148 ft 462 kts 171°
2026-04-15 12:16 48.25066 8.30189 37155 ft 463 kts 171°
2026-04-15 12:17 48.18727 8.31712 37150 ft 463 kts 171°
2026-04-15 12:17 48.12360 8.33251 37148 ft 464 kts 171°
2026-04-15 12:18 48.06012 8.34793 37145 ft 464 kts 170°
2026-04-15 12:18 47.99670 8.36326 37138 ft 464 kts 170°
2026-04-15 12:19 47.93284 8.37866 37142 ft 465 kts 170°
2026-04-15 12:19 47.86888 8.39406 37144 ft 465 kts 170°
2026-04-15 12:20 47.80447 8.40949 37148 ft 465 kts 170°
2026-04-15 12:20 47.74047 8.42481 37157 ft 465 kts 170°
2026-04-15 12:21 47.67688 8.43895 37160 ft 465 kts 173°
2026-04-15 12:21 47.61229 8.44853 37158 ft 465 kts 174°
2026-04-15 12:22 47.54794 8.45791 37156 ft 466 kts 174°
2026-04-15 12:22 47.48328 8.46743 37161 ft 466 kts 174°
2026-04-15 12:23 47.41865 8.47687 37156 ft 466 kts 173°
2026-04-15 12:23 47.35426 8.48630 37155 ft 466 kts 173°
2026-04-15 12:24 47.28977 8.49572 37156 ft 466 kts 173°
2026-04-15 12:24 47.22485 8.50518 37153 ft 467 kts 173°
2026-04-15 12:25 47.16061 8.51455 37152 ft 467 kts 173°
2026-04-15 12:25 47.09601 8.52392 37148 ft 467 kts 173°
2026-04-15 12:26 47.03106 8.53332 37147 ft 468 kts 173°
2026-04-15 12:26 46.96618 8.54269 37141 ft 468 kts 173°
2026-04-15 12:27 46.90135 8.55205 37140 ft 468 kts 173°
2026-04-15 12:27 46.83631 8.56140 37135 ft 468 kts 173°
2026-04-15 12:28 46.77133 8.57067 37133 ft 468 kts 173°
2026-04-15 12:28 46.70678 8.57991 37155 ft 468 kts 173°
2026-04-15 12:29 46.64221 8.58909 37146 ft 469 kts 173°
2026-04-15 12:29 46.57722 8.59835 37152 ft 469 kts 173°
2026-04-15 12:30 46.51212 8.60758 37157 ft 468 kts 172°
2026-04-15 12:30 46.44712 8.61680 37160 ft 469 kts 173°
2026-04-15 12:31 46.38235 8.62596 37166 ft 469 kts 172°
2026-04-15 12:31 46.31706 8.63514 37166 ft 469 kts 173°
2026-04-15 12:32 46.25219 8.64423 37161 ft 468 kts 172°
2026-04-15 12:32 46.18735 8.65332 37154 ft 469 kts 173°
2026-04-15 12:33 46.12208 8.66246 37146 ft 470 kts 173°
2026-04-15 12:33 46.05671 8.67116 37133 ft 470 kts 174°
2026-04-15 12:34 45.99173 8.67929 37124 ft 470 kts 173°
2026-04-15 12:34 45.92650 8.68743 37126 ft 470 kts 173°
2026-04-15 12:35 45.86093 8.69566 37129 ft 470 kts 173°
2026-04-15 12:35 45.79582 8.70383 37127 ft 470 kts 173°
2026-04-15 12:36 45.73025 8.71206 37128 ft 469 kts 173°
2026-04-15 12:36 45.66510 8.72021 37125 ft 470 kts 173°
2026-04-15 12:37 45.59969 8.72837 37126 ft 470 kts 173°
2026-04-15 12:37 45.53451 8.73645 37122 ft 470 kts 173°
2026-04-15 12:38 45.46937 8.74452 37119 ft 470 kts 173°
2026-04-15 12:38 45.40388 8.75264 37122 ft 471 kts 173°
2026-04-15 12:39 45.33881 8.76067 37119 ft 470 kts 173°
2026-04-15 12:39 45.27344 8.76716 37113 ft 470 kts 174°
2026-04-15 12:40 45.20829 8.77292 37108 ft 471 kts 174°
2026-04-15 12:40 45.14297 8.77878 37105 ft 471 kts 174°
2026-04-15 12:41 45.07778 8.78472 36915 ft 471 kts 174°
2026-04-15 12:41 45.04496 8.78772 37185 ft 471 kts 174°
2026-04-15 12:41 45.01221 8.79070 37132 ft 471 kts 174°
2026-04-15 12:42 44.94629 8.79671 37103 ft 471 kts 174°
2026-04-15 12:42 44.88099 8.80264 36942 ft 472 kts 174°
2026-04-15 12:42 44.84807 8.80565 37248 ft 473 kts 174°
2026-04-15 12:43 44.81539 8.80858 36957 ft 473 kts 174°
2026-04-15 12:43 44.74984 8.81705 36268 ft 476 kts 168°
2026-04-15 12:43 44.71711 8.82373 35691 ft 476 kts 168°
2026-04-15 12:44 44.68416 8.83064 35065 ft 479 kts 168°
2026-04-15 12:44 44.65115 8.83757 34381 ft 482 kts 167°
2026-04-15 12:44 44.61792 8.84453 33617 ft 486 kts 167°
2026-04-15 12:44 44.58452 8.85149 32878 ft 488 kts 167°
2026-04-15 12:45 44.55051 8.85855 32161 ft 489 kts 167°
2026-04-15 12:45 44.51696 8.86546 31470 ft 489 kts 168°
2026-04-15 12:45 44.48334 8.87238 30909 ft 485 kts 168°
2026-04-15 12:45 44.45018 8.87914 30445 ft 479 kts 168°
2026-04-15 12:46 44.41737 8.88581 29955 ft 475 kts 168°
2026-04-15 12:46 44.38475 8.89245 29495 ft 469 kts 168°
2026-04-15 12:46 44.35264 8.89903 29047 ft 464 kts 168°
2026-04-15 12:46 44.32085 8.90554 28605 ft 458 kts 168°
2026-04-15 12:47 44.28970 8.91187 28164 ft 452 kts 168°
2026-04-15 12:47 44.25884 8.91815 27724 ft 447 kts 168°
2026-04-15 12:47 44.22833 8.92434 27295 ft 441 kts 169°
2026-04-15 12:47 44.19825 8.93044 26888 ft 434 kts 169°
2026-04-15 12:48 44.16864 8.93646 26479 ft 428 kts 169°
2026-04-15 12:48 44.13912 8.94244 26074 ft 422 kts 169°
2026-04-15 12:48 44.11051 8.94821 25678 ft 416 kts 169°
2026-04-15 12:48 44.08205 8.95397 25267 ft 411 kts 170°
2026-04-15 12:49 44.05409 8.95961 24865 ft 405 kts 170°
2026-04-15 12:49 44.02612 8.96524 24466 ft 400 kts 170°
2026-04-15 12:49 43.99889 8.97072 24080 ft 394 kts 170°
2026-04-15 12:49 43.97178 8.97617 23690 ft 389 kts 170°
2026-04-15 12:50 43.94523 8.98152 23307 ft 384 kts 170°
2026-04-15 12:50 43.91893 8.98679 22896 ft 380 kts 171°
2026-04-15 12:50 43.89278 8.99202 22472 ft 377 kts 171°
2026-04-15 12:50 43.86706 8.99717 22049 ft 374 kts 170°
2026-04-15 12:51 43.84147 9.00229 21626 ft 371 kts 171°
2026-04-15 12:51 43.81569 9.00588 21197 ft 369 kts 176°
2026-04-15 12:51 43.79026 9.00614 20779 ft 367 kts 181°
2026-04-15 12:51 43.76474 9.00364 20361 ft 364 kts 184°
2026-04-15 12:52 43.73985 9.00066 19946 ft 362 kts 184°
2026-04-15 12:52 43.71479 8.99762 19530 ft 360 kts 184°
2026-04-15 12:52 43.68986 8.99463 19119 ft 357 kts 184°
2026-04-15 12:52 43.66538 8.99173 18716 ft 355 kts 184°
2026-04-15 12:53 43.64076 8.98883 18311 ft 353 kts 183°
2026-04-15 12:53 43.61628 8.98596 17907 ft 351 kts 183°
2026-04-15 12:53 43.59228 8.98314 17505 ft 350 kts 183°
2026-04-15 12:53 43.56792 8.98032 17101 ft 348 kts 183°
2026-04-15 12:54 43.54399 8.97754 16699 ft 347 kts 183°
2026-04-15 12:54 43.51979 8.97463 16281 ft 346 kts 184°
2026-04-15 12:54 43.49606 8.97168 15876 ft 344 kts 184°
2026-04-15 12:54 43.47217 8.96871 15473 ft 343 kts 184°
2026-04-15 12:55 43.44859 8.96580 15069 ft 342 kts 184°
2026-04-15 12:55 43.42470 8.96285 14666 ft 341 kts 184°
2026-04-15 12:55 43.40114 8.95994 14264 ft 339 kts 184°
2026-04-15 12:55 43.37799 8.95713 13963 ft 334 kts 184°
2026-04-15 12:56 43.35493 8.95452 13978 ft 333 kts 183°
2026-04-15 12:56 43.33163 8.95194 14007 ft 333 kts 183°
2026-04-15 12:56 43.30872 8.94939 14022 ft 333 kts 183°
2026-04-15 12:56 43.28551 8.94680 14049 ft 333 kts 183°
2026-04-15 12:57 43.26232 8.94421 14060 ft 333 kts 183°
2026-04-15 12:57 43.23933 8.94262 14059 ft 331 kts 174°
2026-04-15 12:57 43.21701 8.94931 14059 ft 327 kts 155°
2026-04-15 12:57 43.19684 8.96401 14068 ft 325 kts 146°
2026-04-15 12:58 43.17761 8.98024 14065 ft 325 kts 145°
2026-04-15 12:58 43.15841 8.99655 14064 ft 326 kts 146°
2026-04-15 12:58 43.13911 9.01283 14064 ft 326 kts 146°
2026-04-15 12:58 43.11966 9.02904 14061 ft 326 kts 146°
2026-04-15 12:59 43.08074 9.06119 14058 ft 326 kts 146°
2026-04-15 12:59 43.06123 9.07726 14052 ft 326 kts 146°
2026-04-15 12:59 43.04190 9.09315 14063 ft 326 kts 146°
2026-04-15 13:00 43.02249 9.10909 14054 ft 326 kts 146°
2026-04-15 13:00 43.00308 9.12501 14054 ft 326 kts 146°
2026-04-15 13:00 42.98355 9.14101 14062 ft 326 kts 146°
2026-04-15 13:00 42.96404 9.15700 14048 ft 325 kts 146°
2026-04-15 13:01 42.94454 9.17297 14045 ft 325 kts 146°
2026-04-15 13:01 42.92528 9.18874 14022 ft 325 kts 146°
2026-04-15 13:01 42.90582 9.20465 13654 ft 327 kts 146°
2026-04-15 13:01 42.88625 9.22065 13224 ft 327 kts 146°
2026-04-15 13:02 42.86700 9.23638 12799 ft 325 kts 146°
2026-04-15 13:02 42.84751 9.25229 12402 ft 323 kts 146°
2026-04-15 13:02 42.82827 9.26800 11999 ft 320 kts 146°
2026-04-15 13:02 42.80931 9.28345 11626 ft 318 kts 146°
2026-04-15 13:03 42.79045 9.29881 11248 ft 315 kts 146°
2026-04-15 13:03 42.77185 9.31397 10859 ft 312 kts 146°
2026-04-15 13:03 42.75322 9.32914 10466 ft 310 kts 146°
2026-04-15 13:03 42.73504 9.34393 10122 ft 305 kts 146°
2026-04-15 13:04 42.71710 9.35847 10002 ft 292 kts 146°
2026-04-15 13:04 42.69975 9.37254 9667 ft 288 kts 146°
2026-04-15 13:04 42.68277 9.38631 9309 ft 285 kts 146°
2026-04-15 13:04 42.66579 9.40008 8968 ft 283 kts 146°
2026-04-15 13:05 42.64897 9.41374 8595 ft 281 kts 146°
2026-04-15 13:05 42.63237 9.42718 8246 ft 278 kts 145°
2026-04-15 13:05 42.61570 9.44066 7907 ft 275 kts 145°
2026-04-15 13:05 42.59932 9.45390 7583 ft 273 kts 145°
2026-04-15 13:06 42.58313 9.46700 7256 ft 271 kts 145°
2026-04-15 13:06 42.56702 9.47996 6925 ft 270 kts 146°
2026-04-15 13:06 42.55065 9.49279 6590 ft 269 kts 147°
2026-04-15 13:06 42.53462 9.50525 6262 ft 268 kts 147°
2026-04-15 13:07 42.51835 9.51788 5930 ft 267 kts 146°
2026-04-15 13:07 42.50222 9.53042 5599 ft 266 kts 146°
2026-04-15 13:07 42.48616 9.54290 5271 ft 264 kts 146°
2026-04-15 13:07 42.47040 9.55518 4959 ft 262 kts 146°
2026-04-15 13:08 42.45451 9.56752 4647 ft 261 kts 146°
2026-04-15 13:08 42.43903 9.57952 4519 ft 251 kts 146°
2026-04-15 13:08 42.42413 9.59090 4430 ft 240 kts 146°
2026-04-15 13:08 42.40979 9.60178 4337 ft 230 kts 146°
2026-04-15 13:09 42.39622 9.61210 4251 ft 220 kts 146°
2026-04-15 13:09 42.38298 9.62194 4132 ft 217 kts 152°
2026-04-15 13:09 42.36812 9.62478 3857 ft 225 kts 192°
2026-04-15 13:09 42.35475 9.61410 3597 ft 225 kts 232°
2026-04-15 13:10 42.34874 9.59533 3346 ft 220 kts 270°
2026-04-15 13:10 42.35177 9.57562 3095 ft 210 kts 306°
2026-04-15 13:10 42.36185 9.56227 2869 ft 201 kts 336°
2026-04-15 13:10 42.37474 9.55592 2659 ft 196 kts 349°
2026-04-15 13:11 42.38798 9.55161 2459 ft 193 kts 350°
2026-04-15 13:11 42.40076 9.54709 2409 ft 180 kts 349°
2026-04-15 13:11 42.41226 9.54257 2380 ft 163 kts 348°
2026-04-15 13:11 42.42242 9.53839 2341 ft 145 kts 348°
2026-04-15 13:12 42.43179 9.53448 2236 ft 139 kts 348°
2026-04-15 13:12 42.44100 9.53060 2050 ft 137 kts 348°
2026-04-15 13:12 42.45012 9.52676 1866 ft 136 kts 348°
2026-04-15 13:12 42.45909 9.52297 1685 ft 136 kts 348°
2026-04-15 13:13 42.46815 9.51915 1503 ft 135 kts 348°
2026-04-15 13:13 42.47698 9.51543 1339 ft 129 kts 347°
2026-04-15 13:13 42.48551 9.51183 1160 ft 127 kts 347°
2026-04-15 13:13 42.49389 9.50833 1001 ft 127 kts 346°
2026-04-15 13:14 42.50234 9.50479 832 ft 126 kts 345°
2026-04-15 13:14 42.51075 9.50127 665 ft 126 kts 347°
2026-04-15 13:14 42.51918 9.49773 504 ft 125 kts 345°
2026-04-15 13:14 42.52751 9.49431 358 ft 126 kts 345°
2026-04-15 13:15 42.53585 9.49081 193 ft 125 kts 344°
2026-04-15 13:15 42.54416 9.48727 62 ft 123 kts 345°
2026-04-15 13:15 42.55186 9.48408 35 ft 98 kts 343°
2026-04-15 13:15 42.55674 9.48204 31 ft 48 kts 342°
2026-04-15 13:16 42.55869 9.48125 29 ft 21 kts 343°
2026-04-15 13:16 42.55969 9.48023 28 ft 18 kts 266°
2026-04-15 13:16 42.55940 9.47908 28 ft 0 kts 240°
2026-04-15 13:17 42.55927 9.47884 28 ft 7 kts 227°
2026-04-15 13:17 42.55856 9.47872 29 ft 14 kts 161°
2026-04-15 13:17 42.55753 9.47916 30 ft 15 kts 162°
2026-04-15 13:18 42.55649 9.47959 31 ft 15 kts 163°
2026-04-15 13:18 42.55544 9.48002 32 ft 15 kts 162°
2026-04-15 13:18 42.55438 9.48047 34 ft 16 kts 162°
2026-04-15 13:18 42.55330 9.48092 34 ft 16 kts 162°
2026-04-15 13:19 42.55219 9.48140 35 ft 16 kts 162°
2026-04-15 13:19 42.55106 9.48187 36 ft 17 kts 162°
2026-04-15 13:19 42.54991 9.48233 37 ft 15 kts 167°
2026-04-15 13:19 42.54903 9.48250 37 ft 9 kts 163°
2026-04-15 13:20 42.54874 9.48212 37 ft 7 kts 272°
2026-04-15 13:20 42.54881 9.48155 37 ft 2 kts 280°
2026-04-15 13:20 42.54882 9.48145 37 ft 0 kts 281°